Location: Civry
(47.2902°N, 4.6156°E)
Time: 16:50:51
(UTC+00:00)

Cosmos 2082 Rocket - Pass Details

Date: 09 April 2020
Orbit: 831 x 855 km, 71.0° (Epoch: 24 May)

Event Time Altitude Azimuth Distance (km) Brightness Sun altitude
Exits shadow 20:34:28 14° 66° (ENE) 2,218 4.1 -20.8°
Drops below altitude 10° 20:35:31 10° 57° (ENE) 2,464 4.4 -20.9°
Sets 20:38:39 0° 40° (NE) 3,409 5.4 -21.3°
